Meteo Giornale » Osservazioni meteo Egitto » Cairo

ore: 15:30 - Osservazioni Meteo Cairo
Lat. 30° 8' N Lon. 31° 24' E Alt. 64 metri s.l.m.

sereno Africa/Cairo

34 °C

Sereno

Temp. 24 Ore

24 °C

34 °C

Nord

18.5 Km/h

Dew point 17 °C

Umidità 36 %

Visibilità  10 Km

Il sole sorge alle ore 05:25

Il sole tramonta alle ore 18:28

Data e Ora Cielo e Fenomeni T °C DP °C Um. % Pres. hPa Vis. km Vento km/h
Oggi h: 15:30 sereno Sereno 34 17 36 1008 10 N 18.5
Oggi h: 15:00 poco_nuvoloso Poco Nuvoloso 34 17 36 1008 6 N 14.8
Oggi h: 14:30 poco_nuvoloso Poco Nuvoloso 34 16 34 1008 6 N 16.7
Oggi h: 14:00 poco_nuvoloso Poco Nuvoloso 34 16 34 1008 6 N 16.7
Oggi h: 13:30 poco_nuvoloso Poco Nuvoloso 34 15 32 1009 6 N 16.7
Oggi h: 13:00 poco_nuvoloso Poco Nuvoloso 34 15 32 1009 6 N 16.7
Oggi h: 12:30 nuvoloso Nuvoloso 32 15 35 1009 6 N 14.8
Oggi h: 12:00 nuvoloso Nuvoloso 32 15 35 1009 6 N 14.8
Oggi h: 11:30 nuvoloso Nuvoloso 31 16 40 1010 6 N 11.1
Oggi h: 11:00 nuvoloso Nuvoloso 31 16 40 1010 6 N 11.1
Oggi h: 10:30 nuvoloso Nuvoloso 31 16 40 1010 6 N 13
Oggi h: 10:00 nuvoloso Nuvoloso 30 18 48 1010 6 N 14.8
Oggi h: 09:30 nuvoloso Nuvoloso 29 19 54 1010 6 N 13
Oggi h: 09:00 nuvoloso Nuvoloso 28 21 65 1010 6 N 13
Oggi h: 08:30 nuvoloso Nuvoloso 27 21 69 1010 6 N 13
Oggi h: 08:00 nuvoloso Nuvoloso 26 21 73 1010 6 N 13
Oggi h: 07:30 foschia Foschia 25 21 78 1010 4 N/NO 9.3
Oggi h: 07:00 foschia Foschia 25 21 78 1010 4 N/NO 9.3
Oggi h: 06:30 foschia Foschia 24 21 83 1010 4 N 9.3
Oggi h: 06:00 foschia Foschia 24 21 83 1010 4 N 9.3
Oggi h: 05:30 sereno Sereno 24 21 83 1009 6 N 7.4
Oggi h: 05:00 sereno Sereno 24 21 83 1009 6 N 7.4
Oggi h: 04:30 sereno Sereno 24 21 83 1009 6 N 9.3
Oggi h: 04:00 sereno Sereno 24 21 83 1009 6 N 9.3
Oggi h: 03:30 sereno Sereno 24 21 83 1009 6 N 9.3
Oggi h: 03:00 sereno Sereno 25 21 78 1010 6 N/NE 9.3
Oggi h: 02:30 sereno Sereno 25 21 78 1010 6 N 11.1
Oggi h: 02:00 sereno Sereno 25 21 78 1010 10 N 13
Oggi h: 01:30 sereno Sereno 25 20 73 1010 10 N 14.8
Oggi h: 01:00 sereno Sereno 25 20 73 1010 10 N 14.8
Oggi h: 00:30 sereno Sereno 26 20 69 1010 10 N 14.8
Oggi h: 00:00 sereno Sereno 26 20 69 1010 10 N 14.8
Ieri h: 23:30 sereno Sereno 26 20 69 1011 10 N 14.8
Ieri h: 23:00 sereno Sereno 27 19 61 1011 10 N 14.8
Ieri h: 22:30 sereno Sereno 27 19 61 1011 10 N 16.7
Ieri h: 22:00 sereno Sereno 27 19 61 1011 10 N 18.5
Ieri h: 21:30 sereno Sereno 28 18 54 1011 10 N 18.5
Ieri h: 21:00 sereno Sereno 29 17 48 1010 10 N 14.8
Ieri h: 20:30 sereno Sereno 29 17 48 1010 10 N/NE 18.5
Ieri h: 20:00 sereno Sereno 30 18 48 1010 10 N/NE 20.3
Ieri h: 19:30 sereno Sereno 30 18 48 1010 10 N/NE 20.3
Ieri h: 19:00 sereno Sereno 31 18 45 1010 10 N 22.2
Ieri h: 18:00 sereno Sereno 32 18 43 1009 10 N 20.3
Ieri h: 17:30 sereno Sereno 32 17 40 1009 10 N 22.2
Ieri h: 17:00 sereno Sereno 33 16 36 1009 10 N 20.3
Ieri h: 16:30 sereno Sereno 33 16 36 1009 10 N 22.2
Ieri h: 16:00 sereno Sereno 34 18 38 1009 10 N/NE 20.3